Regional Weather Roundup
Issued by NWS

Home | Current Version | Previous Version | Graphics & Text | Print | Product List | Glossary On
Versions: 1 2 3 4 5 6 7 8 9 10 11 12 13 14 15 16 17 18 19 20 21 22 23 24 25 26 27
000
ASUS45 KBOU 182007
RWRCO

WEATHER ROUNDUP FOR COLORADO
NATIONAL WEATHER SERVICE DENVER/BOULDER CO
200 PM MDT WED OCT 18 2017

NOTE: "FAIR" INDICATES FEW OR NO CLOUDS BELOW 12000 FEET WITH NO
SIGNIFICANT WEATHER AND/OR OBSTRUCTIONS TO VISIBILITY.

COZ001>005-013-030-031-182100-
...NORTHWEST COLORADO...

CITY           SKY/WX    TMP DP  RH WIND       PRES   REMARKS
CRAIG          FAIR      69   8   9 VRB3      30.24F
HAYDEN         FAIR      65   8  10 VRB5      30.27F
MEEKER         FAIR      70   0   6 CALM      30.23F
RABBIT EARS PA FAIR      50   5  16 SW6       30.46F
STEAMBOAT SPGS FAIR      64  10  12 S3        30.27F
WALDEN         FAIR      61   3  10 SW14G22   30.32F
$$

COZ006>008-011-182100-
...WEST CENTRAL VALLEYS...

CITY           SKY/WX    TMP DP  RH WIND       PRES   REMARKS
GRAND JUNCTION FAIR      67  15  13 SW3       30.19F
MONTROSE       FAIR      70  16  12 VRB5      30.22F
EAGLE          FAIR      64  14  14 SW5       30.28F
RIFLE          FAIR      68  14  12 NW3       30.22F
DELTA          FAIR      70  11  10 SW3       30.21F
NUCLA          FAIR      70  12  11 CALM      30.26F
$$

COZ017>023-064>068-182100-
...SOUTHWEST COLORADO...

CITY           SKY/WX    TMP DP  RH WIND       PRES   REMARKS
DURANGO        FAIR      67  17  14 W7        30.25F
CORTEZ         FAIR      72  15  11 VRB7      30.22F
PAGOSA SPRINGS FAIR      65   3   8 CALM      30.31F
TELLURIDE      FAIR      63   8  12 W7        30.40
WOLF CREEK PAS FAIR      46   3  17 N6        30.59F
$$

COZ009-010-012-014-032>034-037-058>063-182100-
...CENTRAL COLORADO...

CITY           SKY/WX    TMP DP  RH WIND       PRES   REMARKS
ASPEN          FAIR      68   2   7 N8        30.30F
BUENA VISTA    FAIR      63   3   9 S7        30.32F
COPPER MTN     FAIR      52   3  14 W6        30.55S
BERTHOUD PASS  FAIR      37  30  75 NW16G25   30.55F
COTTONWOOD PAS FAIR      61  -4   7 SE7       30.42F
GUNNISON       FAIR      55  10  16 S3        30.35F
KREMMLING      FAIR      68   1   7 CALM      30.31F
LEADVILLE      FAIR      58  -6   7 NE6       30.40F
SALIDA         NOT AVBL
SUNLIGHT       FAIR      50   3  14 NW5       30.52F
WILKERSON PASS FAIR      50  -8   9 CALM      30.52F
$$

COZ069>075-182100-
...SAN LUIS VALLEY/SANGRE DE CRISTO MOUNTAINS...

CITY           SKY/WX    TMP DP  RH WIND       PRES   REMARKS
ALAMOSA        FAIR      65   9  11 N10       30.31F
DEL NORTE      FAIR      61   8  12 W3        30.33F
LA VETA PASS   FAIR      59  14  17 SW5       30.55S
SAGUACHE       FAIR      63  18  17 SE12      30.33F
$$

COZ035-036-038>040-182100-
...NORTHERN COLORADO FRONT RANGE...

CITY           SKY/WX    TMP DP  RH WIND       PRES   REMARKS
DENVER INTL AP FAIR      75   9   8 W5        30.14F
DMNS CITY PARK   N/A     76  14  10 W3        30.13F
AURORA         MOSUNNY   74   7   7 CALM      30.16F
FRONT RANGE AP MOSUNNY   77  10   8 W6        30.16F
ERIE MUNI ARPT FAIR      76   6   7 CALM      30.18F
BOULDER MUN AP FAIR      75  19  12 S3        30.12F
CENTENNIAL     FAIR      73   4   7 VRB3      30.17F
BROOMFIELD     MOSUNNY   75  12   9 SW6       30.16F
FORT COLLINS   FAIR      77  23  13 SE10      30.11F
LONGMONT       FAIR      78  24  13 E7        30.13F
$$

COZ041-046-047-076>085-087-088-182100-
...PIKES PEAK/PALMER DIVIDE AND SOUTHERN FOOTHILLS...

CITY           SKY/WX    TMP DP  RH WIND       PRES   REMARKS
COLO. SPRINGS  FAIR      76  10   8 NW6       30.20F
A. F. ACADEMY  FAIR      73   2   6 E8        30.20F
SCHRIEVER AFB  FAIR      73   6   7 NE12      30.20F
CHEYENNE MTN   NOT AVBL
ELLICOTT       FAIR     N/A N/A N/A NE8       30.19F
FALCON         FAIR      72   6   7 CALM      30.25F
FORT CARSON    FAIR      76   3   6 NE3       30.17F
LIMON          FAIR      76  12   8 CALM      30.15F
MONUMENT HILL  FAIR      68   9  10 CALM      30.25F
CANON CITY     SUNNY     81  18   9 W8        30.15F
WALSENBURG     FAIR      77  18  10 NE8G17    30.18F
TRINIDAD       FAIR      76  18  11 CALM      30.16F
$$

COZ042>045-048>051-090-091-182100-
...NORTHEAST COLORADO...

CITY           SKY/WX    TMP DP  RH WIND       PRES   REMARKS
GREELEY ARPT   FAIR      77  18  11 SW8       30.11F
AKRON          FAIR      75  14  10 NW13      30.11F
BURLINGTON     LGT RAIN  82  16   8 N14G26    30.07F
WRAY           FAIR      81  16   9 N13       30.06F
YUMA           FAIR      73  19  13 N10       30.08F
STERLING       FAIR      77  23  13 NE9       30.07F
HOLYOKE        FAIR      79  19  11 NE6       30.07F
FORT MORGAN    FAIR      79  11   7 NW8       30.10F
$$

COZ086-089-092>099-182100-
...SOUTHEAST COLORADO...

CITY           SKY/WX    TMP DP  RH WIND       PRES   REMARKS
PUEBLO         FAIR      80  13   8 SW6       30.10F
LA JUNTA       FAIR      78  31  17 E5        30.06F
LAMAR          FAIR      79  31  17 E3        30.03F HAZE
SPRINGFIELD      N/A     81  30  15 E7        30.06F
$$




USA.gov is the U.S. government's official web portal to all federal, state and local government web resources and services.